Regional Weather Roundup
Issued by NWS Charleston, SC

Current Version | Previous Version | Graphics & Text | Print | Product List | Glossary On
Versions: 1 2 3 4 5 6 7 8 9 10 11 12 13 14 15 16 17 18 19 20 21 22 23 24 25 26 27 28 29 30 31 32 33 34 35 36 37 38 39 40 41 42 43 44 45 46 47 48 49 50
746 ASUS42 KCHS 241512 RWRCHS Regional Weather Roundup National Weather Service Charleston SC 1100 AM EDT THU MAY 24 2018 NOTE: "fair" indicates few or no clouds below 12,000 feet with no significant weather and/or obstructions to visibility. Not all stations are quality controlled. Use data with caution, especially dewpoint observations. SCZ027-030-031-034>040-042>050-241600- ...Southeast South Carolina... CITY SKY/WX TMP DP RH WIND PRES REMARKS N Charleston PTSUNNY 85 72 65 VRB3 30.11S HX 91 Waterfront Prk N/A 80 73 79 CALM 29.96R Mount Pleasant FAIR 82 73 74 S6 30.12S Johns Island CLOUDY 81 75 83 S8 30.11S Pinopolis N/A 79 73 83 VRB2 30.06S Moncks Corner CLOUDY 79 72 78 NE3 30.12S Summerville PTSUNNY 81 72 74 CALM 30.12F Beaufort MCAS PTSUNNY 84 73 69 CALM 30.11S HX 90 Beaufort Arpt FAIR 82 72 69 SW6 30.10F Hilton Head Is MOSUNNY 82 72 69 S7 30.12S Walterboro FAIR 81 70 69 CALM 30.12S Allendale PTSUNNY 77 72 83 CALM 30.11S ...Southern Midlands and Pee Dee... CITY SKY/WX TMP DP RH WIND PRES REMARKS Georgetown PTSUNNY 81 72 74 W3 30.14S Kingstree CLOUDY 79 73 83 CALM 30.13S Orangeburg FAIR 81 68 64 CALM 30.12S Barnwell CLOUDY 81 72 74 CALM 30.12S Aiken CLOUDY 72 72 100 E6 30.16S FOG Manning CLOUDY 75 68 78 CALM 30.12S Columbia PTSUNNY 84 72 67 VRB5 30.11S Sumter PTSUNNY 80 70 71 NE6 30.11S Florence CLOUDY 80 71 74 N5 30.14R Myrtle Beach CLOUDY 80 71 74 SE5 30.15S N Myrtle Beach CLOUDY 81 70 69 NE7 30.13F $$ GAZ063-065-086>088-099>101-113>116-118-119-134>141-150-241600- ...Southeast Georgia... CITY SKY/WX TMP DP RH WIND PRES REMARKS Savannah Arpt PTSUNNY 81 71 71 SW3 30.11S Hunter AAF FAIR 82 72 72 W3 30.08F Fort Stewart CLOUDY 82 71 68 S6 30.08F Statesboro CLOUDY 75 71 85 CALM 30.11S Sylvania FAIR 80 73 81 CALM 30.12S Claxton FAIR 80 73 79 CALM 30.10F ...CSRA, Central and far Southeast Georgia... CITY SKY/WX TMP DP RH WIND PRES REMARKS Thomson CLOUDY 74 70 86 SE6 30.18S Augusta-Bush CLOUDY 74 71 91 NE5 30.11S Augusta-Daniel CLOUDY 77 71 82 E5 30.13S Swainsboro CLOUDY 73 72 94 CALM 30.12S Vidalia PTSUNNY 79 70 73 CALM 30.11S Eastman CLOUDY 78 66 67 S3 30.13S Hazlehurst N/A 82 70 68 CALM 30.10S Alma FAIR 82 71 69 S5 30.10F Waycross FAIR 82 73 75 CALM 30.10F Jesup NOT AVBL Baxley FAIR 79 75 89 CALM 30.10S Brunswick FAIR 81 70 69 CALM 30.11F Saint Simons FAIR 81 73 76 SE5 30.10F $$ SCZ027-028-034-036>038-045-046-048>050-GAZ119-141-241600- ...Lake and Supplemental Coastal Observations... STATION/POSITION TIME TEMP WIND PRES WAVE SWELL AIR SEA DIR/SP/G HT/PER HT/PER/DIR (UTC) (F) (DEG/KT/KT) (MB) (FT/S) (FT/S/D) Winyah Bay 1345 79 260/ 4 1020.0 Lake Murray 1420 81 170/ 3/ 4 1019.0 ACE Basin NERRS 1345 82 CALM 1020.0 Fort Pulaski 1442 79 78 200/ 3/ 4 1019.9F Sapelo Island 1400 75 CALM 1019.0 $$ ANZ835-935-AMZ111-154-330-350-352-354-370-450-454-472-241600- ...C-MAN and Buoy Observations... STATION/POSITION TIME TEMP WIND PRES WAVE SWELL AIR SEA DIR/SP/G HT/PER HT/PER/DIR (UTC) (F) (DEG/KT/KT) (MB) (FT/S) (FT/S/D) Buoy 41004 1450 75 190/ 2/ 4 1020.5R 3/ 8 3/140/ 8 Buoy 41008 1450 76 77 180/ 6/ 6 1019.4S 2/ 8 2/100/ 8 Folly Beach CMAN 1400 78 200/ 8/ 10 1020.5R Capers Nearshore 1408 77 77 220/ 6/ 8 1021.0R Fripp Nearshore 1408 77 79 200/ 8/ 12 1019.5S STATION/POSITION TIME TEMP WIND PRES WAVE SWELL AIR SEA DIR/SP/G HT/PER HT/PER/DIR (UTC) (F) (DEG/KT/KT) (MB) (FT/S) (FT/S/D) 5E St. Marys GA 1430 77 N/A 2/ 8 Frying Pan Buoy 1450 76 76 280/ 6/ 8 1020.8R 2/ 8 2/120/ 8 Buoy 41025 1450 73 75 30/ 8/ 12 1021.3R 2/ 8 2/120/ 8 Cape Lookout NC 1400 60/ 3/ 4 1021.0R Buoy 41002 1450 78 280/ 6/ 10 1021.0R 3/ 9 3/130/ 9 Buoy 41010 1450 78 79 170/ 6/ 10 1020.6S 3/ 9 3/100/ 9 St Augustine FL 1500 77 78 140/ 9/ 9 1019.9S $$

USA.gov is the U.S. government's official web portal to all federal, state and local government web resources and services.